TimeEDT,TemperatureF,Dew PointF,Humidity,Sea Level PressureIn,VisibilityMPH,Wind Direction,Wind SpeedMPH,Gust SpeedMPH,PrecipitationIn,Events,Conditions,WindDirDegrees,DateUTC
12:54 AM,62.1,54.0,75,29.98,10.0,SSE,9.2,-,N/A,,Clear,160,2013-04-16 04:54:00
1:54 AM,63.0,54.0,72,29.99,10.0,South,10.4,-,N/A,,Clear,170,2013-04-16 05:54:00
2:54 AM,62.1,54.0,75,29.98,10.0,South,10.4,-,N/A,,Clear,170,2013-04-16 06:54:00
3:54 AM,61.0,54.0,78,29.99,10.0,South,9.2,-,N/A,,Clear,180,2013-04-16 07:54:00
4:54 AM,62.1,55.0,78,30.02,10.0,South,9.2,-,N/A,,Clear,190,2013-04-16 08:54:00
5:54 AM,59.0,54.0,83,30.04,10.0,South,9.2,-,N/A,,Clear,170,2013-04-16 09:54:00
6:54 AM,57.9,54.0,87,30.08,10.0,South,6.9,-,N/A,,Clear,180,2013-04-16 10:54:00
7:54 AM,60.8,55.4,82,30.11,10.0,South,6.9,-,N/A,,Mostly Cloudy,170,2013-04-16 11:54:00
8:54 AM,64.9,57.9,78,30.12,10.0,South,11.5,-,N/A,,Partly Cloudy,180,2013-04-16 12:54:00
9:54 AM,69.1,59.0,70,30.13,10.0,SSW,11.5,-,N/A,,Mostly Cloudy,200,2013-04-16 13:54:00
10:54 AM,73.0,61.0,66,30.13,10.0,SSW,17.3,25.3,N/A,,Mostly Cloudy,200,2013-04-16 14:54:00
11:16 AM,73.4,62.6,69,30.15,10.0,SSW,13.8,24.2,N/A,,Mostly Cloudy,210,2013-04-16 15:16:00
11:54 AM,75.9,63.0,64,30.13,10.0,SSW,13.8,-,N/A,,Mostly Cloudy,210,2013-04-16 15:54:00
12:54 PM,75.9,63.0,64,30.12,10.0,SSW,13.8,-,N/A,,Mostly Cloudy,210,2013-04-16 16:54:00
1:54 PM,78.1,63.0,60,30.10,10.0,SSW,15.0,-,N/A,,Mostly Cloudy,210,2013-04-16 17:54:00
2:54 PM,80.1,64.0,58,30.08,10.0,SSW,15.0,-,N/A,,Mostly Cloudy,210,2013-04-16 18:54:00
3:54 PM,79.0,64.0,60,30.07,10.0,South,11.5,-,N/A,,Scattered Clouds,190,2013-04-16 19:54:00
4:54 PM,80.1,64.0,58,30.06,10.0,SSW,15.0,-,N/A,,Scattered Clouds,200,2013-04-16 20:54:00
5:54 PM,80.1,63.0,56,30.06,10.0,WSW,11.5,-,N/A,,Partly Cloudy,240,2013-04-16 21:54:00
6:54 PM,78.1,64.0,62,30.07,10.0,WSW,10.4,-,N/A,,Scattered Clouds,250,2013-04-16 22:54:00
7:54 PM,75.9,64.0,67,30.09,10.0,WSW,5.8,-,N/A,,Mostly Cloudy,250,2013-04-16 23:54:00
8:54 PM,69.1,59.0,70,30.12,10.0,NNE,17.3,24.2,N/A,,Mostly Cloudy,30,2013-04-17 00:54:00
9:01 PM,66.2,57.2,73,30.14,10.0,NNE,17.3,-,N/A,,Mostly Cloudy,30,2013-04-17 01:01:00
9:54 PM,64.0,57.9,80,30.14,10.0,NE,15.0,-,N/A,,Scattered Clouds,50,2013-04-17 01:54:00
10:47 PM,62.6,59.0,88,30.21,1.8,Variable,6.9,33.4,0.09,Rain,Heavy Rain,0,2013-04-17 02:47:00
10:54 PM,61.0,57.9,90,30.15,1.5,ENE,21.9,-,0.35,Rain,Heavy Rain,60,2013-04-17 02:54:00
10:58 PM,62.6,57.2,82,30.14,3.0,ENE,24.2,27.6,0.02,Rain,Rain,70,2013-04-17 02:58:00
11:10 PM,62.6,57.2,82,30.15,10.0,ESE,11.5,-,0.03,Rain,Light Rain,110,2013-04-17 03:10:00
11:54 PM,63.0,59.0,87,30.17,10.0,East,5.8,-,0.03,,Mostly Cloudy,90,2013-04-17 03:54:00